EW0199 Weather Reports


Display with metric or nautical units.
time (UTC)temp
F
wind
direction
speed
MPH
gust
MPH
rain 1hr
in
rain 24hr
in
rain mn
in
humidity
%
barometer
mb
20260503221911 65 311 1.0 4.0 0.00 0.02 0.02 44 999.2
20260503221328 66 298 1.0 6.0 0.00 0.02 0.02 44 999.1
20260503220921 67 341 1.0 6.0 0.00 0.02 0.02 45 999.2
20260503220431 66 303 0.0 17.0 0.00 0.02 0.02 48 999.3
20260503215829 66 151 6.0 17.0 0.00 0.02 0.02 43 999.4
20260503215339 67 267 9.0 21.0 0.00 0.02 0.02 38 999.3
20260503214343 68 245 4.0 13.0 0.00 0.02 0.02 38 999.1
20260503213906 68 272 6.0 12.0 0.00 0.02 0.02 38 999.2
20260503213437 68 186 2.0 13.0 0.00 0.02 0.02 38 999.1
20260503212926 68 217 6.0 13.0 0.00 0.02 0.02 38 999.1
20260503212324 69 298 5.0 12.0 0.00 0.02 0.02 37 999.1
20260503211853 70 277 7.0 12.0 0.00 0.02 0.02 36 999.1
20260503211420 70 288 5.0 13.0 0.00 0.02 0.02 36 999.1
20260503210840 70 314 7.0 18.0 0.00 0.02 0.02 37 999.1
20260503210408 70 265 8.0 18.0 0.00 0.02 0.02 36 999.3
20260503205329 70 316 7.0 14.0 0.00 0.02 0.02 34 999.4
20260503204843 70 247 4.0 11.0 0.00 0.02 0.02 36 999.4
20260503204407 70 275 5.0 18.0 0.00 0.02 0.02 35 999.5
20260503203917 70 292 5.0 14.0 0.00 0.02 0.02 35 999.4
20260503203441 70 317 8.0 14.0 0.00 0.02 0.02 36 999.4
20260503202841 70 282 2.0 15.0 0.00 0.02 0.02 39 999.6
20260503201840 70 295 5.0 18.0 0.00 0.02 0.02 37 999.7
20260503201353 70 293 4.0 16.0 0.00 0.02 0.02 38 999.8
20260503200902 69 283 7.0 16.0 0.00 0.02 0.02 38 999.8
20260503200350 69 236 3.0 9.0 0.00 0.02 0.02 38 1000.1
20260503195852 70 212 3.0 13.0 0.00 0.02 0.02 39 1000.1
20260503195355 69 290 3.0 15.0 0.00 0.02 0.02 38 1000.2
20260503194927 69 275 5.0 15.0 0.00 0.02 0.02 38 1000.3
20260503194328 69 210 7.0 15.0 0.00 0.02 0.02 38 1000.4
20260503193832 69 296 5.0 10.0 0.00 0.02 0.02 38 1000.3
20260503193350 69 152 2.0 17.0 0.00 0.02 0.02 42 1000.4
20260503192915 68 283 7.0 17.0 0.00 0.02 0.02 38 1000.7
20260503192326 69 314 4.0 15.0 0.00 0.02 0.02 37 1000.6
20260503191855 69 289 5.0 14.0 0.00 0.02 0.02 38 1000.7
20260503191402 69 285 8.0 14.0 0.00 0.02 0.02 37 1000.7
20260503190907 69 245 4.0 10.0 0.00 0.02 0.02 38 1000.7
20260503190409 68 306 3.0 11.0 0.00 0.02 0.02 40 1000.7
20260503185925 69 231 3.0 16.0 0.00 0.02 0.02 39 1000.9
20260503185323 69 300 7.0 16.0 0.00 0.02 0.02 38 1000.8
20260503184843 68 253 6.0 14.0 0.00 0.02 0.02 38 1001.0
20260503184352 68 222 5.0 14.0 0.00 0.02 0.02 38 1001.1
20260503183856 68 283 1.0 10.0 0.00 0.02 0.02 39 1001.1
20260503183411 69 295 4.0 10.0 0.00 0.02 0.02 38 1001.2
20260503182345 69 224 3.0 11.0 0.00 0.02 0.02 39 1001.3
20260503181909 68 129 3.0 9.0 0.00 0.02 0.02 40 1001.4
20260503180827 68 227 3.0 12.0 0.00 0.02 0.02 39 1001.5
20260503180346 68 283 3.0 12.0 0.00 0.02 0.02 40 1001.6
20260503175842 68 302 3.0 8.0 0.00 0.02 0.02 39 1001.7
20260503175408 68 163 3.0 15.0 0.00 0.02 0.02 40 1001.7
20260503174327 68 312 5.0 10.0 0.00 0.02 0.02 40 1001.7
20260503173848 68 327 2.0 10.0 0.00 0.02 0.02 41 1001.7
20260503173401 67 255 2.0 10.0 0.00 0.02 0.02 40 1001.9
20260503172859 67 255 3.0 11.0 0.00 0.02 0.02 41 1002.0
20260503172421 66 141 4.0 13.0 0.00 0.02 0.02 41 1002.0
20260503171839 66 281 6.0 13.0 0.00 0.02 0.02 41 1002.1
20260503171359 66 304 6.0 12.0 0.00 0.02 0.02 41 1002.3
20260503170859 66 189 5.0 13.0 0.00 0.02 0.02 42 1002.3
20260503170420 67 244 4.0 13.0 0.00 0.02 0.02 41 1002.4
20260503150901 58 241 2.0 9.0 0.00 0.02 0.02 54 1004.0
20260503150409 58 316 4.0 8.0 0.00 0.02 0.02 54 1004.0
20260503131403 46 245 0.0 1.0 0.00 0.02 0.02 88 1005.1
20260503130825 46 157 0.0 1.0 0.00 0.02 0.02 92 1005.1
20260503130352 45 157 0.0 1.0 0.00 0.02 0.02 94 1005.1
20260503110326 41 160 0.0 0.0 0.02 0.02 0.02 93 1005.4
20260503090342 39 264 0.0 0.0 0.00 0.00 0.00 89 1006.4
20260503081415 39 264 0.0 0.0 0.00 0.00 0.00 91 1006.6
20260503080914 39 264 0.0 0.0 0.00 0.00 0.00 91 1006.7
20260503080335 38 264 0.0 0.0 0.00 0.00 0.00 90 1006.7
20260503072900 38 264 0.0 0.0 0.00 0.00 0.00 91 1006.9
20260503072422 38 264 0.0 0.0 0.00 0.00 0.00 91 1007.0
20260503071921 38 264 0.0 0.0 0.00 0.00 0.00 91 1007.0
20260503071328 38 264 0.0 1.0 0.00 0.00 0.00 91 1007.1
20260503070847 38 264 0.0 1.0 0.00 0.00 0.00 91 1007.4
20260503070416 38 264 0.0 0.0 0.00 0.00 0.00 91 1007.5
20260503060343 37 264 0.0 0.0 0.00 0.00 0.00 89 1008.1
20260503054823 37 264 0.0 0.0 0.00 0.00 0.00 87 1008.2
20260503054329 37 264 0.0 0.0 0.00 0.00 0.00 88 1008.3
20260503053836 37 264 0.0 1.0 0.00 0.00 0.00 86 1008.4
20260503053341 36 264 0.0 1.0 0.00 0.00 0.00 84 1008.5
20260503052828 36 262 0.0 0.0 0.00 0.00 0.00 81 1008.3
20260503052334 36 262 0.0 1.0 0.00 0.00 0.00 81 1008.6
20260503051841 36 262 0.0 1.0 0.00 0.00 0.00 79 1008.6
20260503051348 36 262 0.0 0.0 0.00 0.00 0.00 79 1008.6
20260503050834 36 262 0.0 0.0 0.00 0.00 0.00 79 1008.5
20260503050324 36 262 0.0 0.0 0.00 0.00 0.00 79 1008.6
20260503045900 36 262 0.0 0.0 0.00 0.00 0.00 76 1008.6
20260503045403 36 262 0.0 0.0 0.00 0.00 0.00 77 1008.6
20260503044831 37 262 0.0 0.0 0.00 0.00 0.00 77 1008.6
20260503044340 37 262 0.0 0.0 0.00 0.00 0.00 75 1008.6
20260503043857 37 262 0.0 0.0 0.00 0.00 0.00 74 1008.7
20260503043421 37 262 0.0 0.0 0.00 0.00 0.00 73 1008.8
20260503042823 37 262 0.0 0.0 0.00 0.00 0.00 76 1008.8
20260503042348 38 262 0.0 0.0 0.00 0.00 0.00 73 1008.9
20260503041343 38 262 0.0 0.0 0.00 0.00 0.00 71 1008.8
20260503040852 39 262 0.0 0.0 0.00 0.00 0.00 70 1008.9
20260503040419 39 262 0.0 0.0 0.00 0.00 0.00 70 1008.8
20260503035918 40 262 0.0 0.0 0.00 0.00 0.00 70 1008.8
20260503035422 41 262 0.0 0.0 0.00 0.00 0.00 68 1008.8
20260503034927 41 262 0.0 0.0 0.00 0.00 0.00 65 1008.9
20260503034327 41 262 0.0 0.0 0.00 0.00 0.00 63 1009.0
20260503033850 41 262 0.0 0.0 0.00 0.00 0.00 66 1009.0
20260503033418 41 262 0.0 0.0 0.00 0.00 0.00 68 1009.1
20260503032941 42 262 0.0 0.0 0.00 0.00 0.00 69 1009.1
20260503032334 41 262 0.0 0.0 0.00 0.00 0.00 64 1009.2
20260503031857 41 262 0.0 0.0 0.00 0.00 0.00 63 1009.1
20260503031400 41 262 0.0 0.0 0.00 0.00 0.00 64 1009.1
20260503030921 41 262 0.0 0.0 0.00 0.00 0.00 65 1009.3
20260503030338 41 262 0.0 0.0 0.00 0.00 0.00 65 1009.2
20260503025904 41 262 0.0 0.0 0.00 0.00 0.00 65 1009.3
20260503025324 42 262 0.0 0.0 0.00 0.00 0.00 71 1009.4
20260503024853 42 262 0.0 0.0 0.00 0.00 0.00 64 1009.4
20260503024416 42 262 0.0 0.0 0.00 0.00 0.00 63 1009.5
20260503023835 42 262 0.0 0.0 0.00 0.00 0.00 61 1009.5
20260503023409 43 262 0.0 0.0 0.00 0.00 0.00 61 1009.5
20260503022921 43 262 0.0 0.0 0.00 0.00 0.00 59 1009.5
20260503022342 44 262 0.0 0.0 0.00 0.00 0.00 59 1009.6
20260503021343 45 262 0.0 0.0 0.00 0.00 0.00 58 1009.6
20260503020907 46 262 0.0 0.0 0.00 0.00 0.00 55 1009.6
20260503020432 46 262 0.0 0.0 0.00 0.00 0.00 56 1009.5
20260503015833 47 262 0.0 0.0 0.00 0.00 0.00 53 1009.5
20260503015340 47 262 0.0 0.0 0.00 0.00 0.00 54 1009.5
20260503014903 46 262 0.0 0.0 0.00 0.00 0.00 51 1009.4
20260503014412 46 262 0.0 0.0 0.00 0.00 0.00 52 1009.4
20260503013830 47 262 0.0 0.0 0.00 0.00 0.00 50 1009.4
20260503013353 48 262 0.0 0.0 0.00 0.00 0.00 50 1009.4
20260503012911 49 263 0.0 0.0 0.00 0.00 0.00 46 1009.5
20260503012414 50 262 0.0 0.0 0.00 0.00 0.00 46 1009.5
20260503011942 51 262 0.0 0.0 0.00 0.00 0.00 43 1009.4
20260503011428 52 263 0.0 1.0 0.00 0.00 0.00 41 1009.4
20260503010824 52 262 0.0 1.0 0.00 0.00 0.00 40 1009.4
20260503010326 53 262 0.0 0.0 0.00 0.00 0.00 40 1009.4
20260503005851 53 262 0.0 1.0 0.00 0.00 0.00 39 1009.4
20260503004842 54 267 0.0 0.0 0.00 0.00 0.00 38 1009.5
20260503003827 56 267 0.0 1.0 0.00 0.00 0.00 36 1009.5
20260503003330 56 267 0.0 1.0 0.00 0.00 0.00 35 1009.5
20260503002856 57 232 0.0 2.0 0.00 0.00 0.00 34 1009.5
20260503002419 57 283 0.0 4.0 0.00 0.00 0.00 33 1009.5
20260503001919 57 283 0.0 4.0 0.00 0.00 0.00 33 1009.5
20260503001335 58 217 1.0 3.0 0.00 0.00 0.00 33 1009.6
20260503000904 58 278 0.0 5.0 0.00 0.00 0.00 33 1009.6
20260503000419 58 257 1.0 5.0 0.00 0.00 0.00 32 1009.6
20260502235830 59 188 1.0 6.0 0.00 0.00 0.00 31 1009.6
20260502235338 59 222 3.0 8.0 0.00 0.00 0.00 31 1009.6
20260502234845 59 290 2.0 8.0 0.00 0.00 0.00 32 1009.7
20260502234355 59 245 2.0 7.0 0.00 0.00 0.00 31 1009.7
20260502233901 59 213 2.0 7.0 0.00 0.00 0.00 32 1009.7
20260502233418 59 282 2.0 9.0 0.00 0.00 0.00 31 1009.7
20260502232838 59 271 4.0 14.0 0.00 0.00 0.00 30 1009.8
20260502232356 60 283 6.0 14.0 0.00 0.00 0.00 29 1009.8
20260502231902 60 281 3.0 10.0 0.00 0.00 0.00 31 1009.9
20260502231401 60 298 4.0 10.0 0.00 0.00 0.00 30 1009.9
20260502230822 59 316 0.0 7.0 0.00 0.00 0.00 30 1010.0
20260502230330 58 269 2.0 5.0 0.00 0.00 0.00 31 1010.0
20260502225854 58 132 1.0 7.0 0.00 0.00 0.00 31 1010.0
20260502225402 59 222 1.0 7.0 0.00 0.00 0.00 30 1010.1
20260502224910 59 262 2.0 8.0 0.00 0.00 0.00 29 1010.2
20260502224426 60 224 2.0 6.0 0.00 0.00 0.00 29 1010.2
20260502223826 61 269 3.0 10.0 0.00 0.00 0.00 29 1010.3
20260502223351 60 275 4.0 10.0 0.00 0.00 0.00 30 1010.2
20260502222858 60 326 5.0 11.0 0.00 0.00 0.00 29 1010.3